Chippewa, MI

2:01 PM EDT on October 19, 2019 (GMT -0400)
Chippewa County International

Weather History for KCIU - August, 2019

Change the Weather History Date:

Friday, August 16, 2019

  Actual Average Record
Temperature  
Mean Temperature 63 °F -  
Max Temperature 75 °F 75 °F 85 °F (1991)
Min Temperature 53 °F 49 °F 29 °F (1979)
Degree Days  
Heating Degree Days 2    
Growing Degree Days 13 (Base 50)    
Moisture  
Dew Point 55 °F    
Average Humidity 77    
Maximum Humidity 100    
Minimum Humidity 49    
Precipitation  
Precipitation 0.00 in - - ()
Sea Level Pressure  
Sea Level Pressure 29.94 in    
Wind  
Wind Speed 6 mph (SSE)    
Max Wind Speed 14 mph    
Max Gust Speed 20 mph    
Visibility 10 miles    
Events Rain    
Averages and records for this station are not official NWS values.
T = Trace of Precipitation, MM = Missing Value Source: NWS Daily Summary

Daily Weather History Graph

Daily Weather History Graph

Search for Another Location

Airport or City:

Astronomy

Aug. 16, 2019 Rise Set
Actual Time 6:37 AM EDT 8:45 PM EDT
Civil Twilight 6:05 AM EDT 9:18 PM EDT
Nautical Twilight 5:24 AM EDT 9:58 PM EDT
Astronomical Twilight 4:39 AM EDT 10:43 PM EDT
Moon 9:42 PM EDT (8/16) 7:28 AM EDT (8/16)
Length of Visible Light 15h 13m
Length of Day
14h 07m
Full, 99% of the Moon is Illuminated
Aug 16
Full
Aug 23
Last Quarter
Aug 30
New
Sep 5
First Quarter
Sep 14
Full

Hourly Weather History & Observations

Time (EDT) Temp. Dew Point Humidity Pressure Visibility Wind Dir Wind Speed Gust Speed Precip Events Conditions
12:56 AM 59.0 °F 55.9 °F 90% 29.99 in 10.0 mi SSW 3.5 mph - N/A   Clear
1:56 AM 57.0 °F 55.9 °F 96% 29.99 in 10.0 mi South 4.6 mph - N/A   Clear
2:56 AM 55.0 °F 54.0 °F 96% 29.99 in 10.0 mi South 3.5 mph - N/A   Clear
3:21 AM 53.6 °F 53.6 °F 100% 29.99 in 2.5 mi South 3.5 mph - N/A   Clear
3:29 AM 55.4 °F 55.4 °F 100% 30.00 in 10.0 mi South 4.6 mph - N/A   Clear
3:56 AM 55.0 °F 55.0 °F 100% 29.99 in 4.0 mi SSE 3.5 mph - N/A   Clear
4:56 AM 57.0 °F 55.9 °F 96% 29.98 in 10.0 mi South 4.6 mph - N/A   Clear
5:56 AM 54.0 °F 54.0 °F 100% 29.98 in 10.0 mi SSE 4.6 mph - N/A   Clear
6:56 AM 53.1 °F 53.1 °F 100% 29.99 in 10.0 mi SSE 6.9 mph - N/A   Clear
7:56 AM 57.0 °F 55.9 °F 96% 29.98 in 10.0 mi SE 4.6 mph - N/A   Clear
8:56 AM 64.0 °F 59.0 °F 84% 29.98 in 10.0 mi SE 3.5 mph - N/A   Clear
9:56 AM 66.0 °F 57.9 °F 75% 29.98 in 10.0 mi SE 6.9 mph - N/A   Clear
10:56 AM 69.1 °F 57.0 °F 65% 29.97 in 10.0 mi SSE 11.5 mph - N/A   Clear
11:56 AM 70.0 °F 54.0 °F 57% 29.96 in 10.0 mi South 8.1 mph - N/A   Clear
12:56 PM 73.0 °F 53.1 °F 49% 29.94 in 10.0 mi SSE 12.7 mph 19.6 mph N/A   Clear
1:56 PM 72.0 °F 53.1 °F 51% 29.95 in 10.0 mi South 11.5 mph - N/A   Clear
2:56 PM 73.0 °F 54.0 °F 51% 29.93 in 10.0 mi SE 9.2 mph 18.4 mph N/A   Partly Cloudy
3:56 PM 73.9 °F 55.0 °F 52% 29.92 in 10.0 mi SSE 13.8 mph 18.4 mph N/A   Clear
4:56 PM 72.0 °F 53.1 °F 51% 29.90 in 10.0 mi South 11.5 mph 17.3 mph N/A   Partly Cloudy
5:56 PM 72.0 °F 57.0 °F 59% 29.88 in 10.0 mi SE 11.5 mph - N/A   Clear
6:56 PM 70.0 °F 57.0 °F 63% 29.88 in 10.0 mi SE 11.5 mph - N/A   Clear
7:56 PM 66.9 °F 54.0 °F 63% 29.88 in 10.0 mi SE 13.8 mph - N/A   Clear
8:56 PM 66.0 °F 54.0 °F 65% 29.87 in 10.0 mi SE 10.4 mph - N/A   Scattered Clouds
9:56 PM 64.9 °F 55.0 °F 70% 29.87 in 10.0 mi ESE 9.2 mph - 0.00 in   Overcast
10:56 PM 64.0 °F 57.9 °F 80% 29.86 in 10.0 mi ESE 8.1 mph - 0.00 in Rain Light Rain
11:56 PM 64.0 °F 61.0 °F 90% 29.84 in 10.0 mi ESE 9.2 mph - 0.00 in Rain Light Rain